Time,TemperatureF,DewpointF,PressureIn,WindDirection,WindDirectionDegrees,WindSpeedMPH,WindSpeedGustMPH,Humidity,HourlyPrecipIn,Conditions,Clouds,dailyrainin,SolarRadiationWatts/m^2,SoftwareType,DateUTC
2013-06-04 00:03:00,57.0,55.0,-100.00,North,353,0.0,2.0,93,0.00,,,0.15,0.000000,,2013-06-04 04:03:00,
2013-06-04 00:13:00,57.0,55.0,-100.00,North,353,0.0,2.0,93,0.00,,,0.15,0.000000,,2013-06-04 04:13:00,
2013-06-04 00:33:00,56.0,55.0,-100.00,NNW,341,0.0,1.0,98,0.00,,,0.12,0.000000,,2013-06-04 04:33:00,
2013-06-04 00:42:00,56.0,55.0,-100.00,NNW,341,0.0,1.0,98,0.00,,,0.12,0.000000,,2013-06-04 04:42:00,
2013-06-04 00:53:00,56.0,55.0,-100.00,NNW,341,0.0,1.0,98,0.00,,,0.12,0.000000,,2013-06-04 04:53:00,
2013-06-04 01:03:00,56.0,55.0,-100.00,NNW,341,0.0,1.0,98,0.00,,,0.12,0.000000,,2013-06-04 05:03:00,
2013-06-04 01:12:00,56.0,55.0,-100.00,NNW,341,0.0,1.0,98,0.00,,,0.12,0.000000,,2013-06-04 05:12:00,
2013-06-04 01:32:00,55.0,55.0,-100.00,NW,322,0.0,1.0,100,0.00,,,0.12,0.000000,,2013-06-04 05:32:00,
2013-06-04 01:42:00,55.0,55.0,-100.00,NW,322,0.0,1.0,100,0.00,,,0.12,0.000000,,2013-06-04 05:42:00,
2013-06-04 01:52:00,55.0,55.0,-100.00,NW,322,0.0,1.0,100,0.00,,,0.12,0.000000,,2013-06-04 05:52:00,
2013-06-04 02:02:00,55.0,55.0,-100.00,NW,322,0.0,1.0,100,0.00,,,0.12,0.000000,,2013-06-04 06:02:00,
2013-06-04 02:12:00,55.0,55.0,-100.00,NW,322,0.0,1.0,100,0.00,,,0.12,0.000000,,2013-06-04 06:12:00,
2013-06-04 02:32:00,55.0,55.0,-100.00,North,355,0.0,0.0,100,0.00,,,0.12,0.000000,,2013-06-04 06:32:00,
2013-06-04 02:42:00,55.0,55.0,-100.00,North,355,0.0,0.0,100,0.00,,,0.12,0.000000,,2013-06-04 06:42:00,
2013-06-04 02:52:00,55.0,55.0,-100.00,North,355,0.0,0.0,100,0.00,,,0.12,0.000000,,2013-06-04 06:52:00,
2013-06-04 03:02:00,55.0,55.0,-100.00,North,355,0.0,0.0,100,0.00,,,0.12,0.000000,,2013-06-04 07:02:00,
2013-06-04 03:13:00,55.0,55.0,-100.00,North,355,0.0,0.0,100,0.00,,,0.12,0.000000,,2013-06-04 07:13:00,
2013-06-04 03:32:00,55.0,55.0,-100.00,NNE,14,1.0,4.0,100,0.00,,,0.12,0.000000,,2013-06-04 07:32:00,
2013-06-04 03:42:00,55.0,55.0,-100.00,NNE,14,1.0,4.0,100,0.00,,,0.12,0.000000,,2013-06-04 07:42:00,
2013-06-04 03:52:00,55.0,55.0,-100.00,NNE,14,1.0,4.0,100,0.00,,,0.12,0.000000,,2013-06-04 07:52:00,
2013-06-04 04:02:00,55.0,55.0,-100.00,NNE,14,1.0,4.0,100,0.00,,,0.12,0.000000,,2013-06-04 08:02:00,
2013-06-04 04:12:00,55.0,55.0,-100.00,NNE,14,1.0,4.0,100,0.00,,,0.12,0.000000,,2013-06-04 08:12:00,
2013-06-04 04:32:00,54.0,54.0,-100.00,NNW,331,0.0,3.0,100,0.00,,,0.12,0.000000,,2013-06-04 08:32:00,
2013-06-04 04:42:00,54.0,54.0,-100.00,NNW,331,0.0,3.0,100,0.00,,,0.12,0.000000,,2013-06-04 08:42:00,
2013-06-04 04:52:00,54.0,54.0,-100.00,NNW,331,0.0,3.0,100,0.00,,,0.12,0.000000,,2013-06-04 08:52:00,
2013-06-04 05:02:00,54.0,54.0,-100.00,NNW,331,0.0,3.0,100,0.00,,,0.12,0.000000,,2013-06-04 09:02:00,
2013-06-04 05:12:00,54.0,54.0,-100.00,NNW,331,0.0,3.0,100,0.00,,,0.12,0.000000,,2013-06-04 09:12:00,
2013-06-04 05:43:00,53.0,53.0,-100.00,WNW,299,1.0,4.0,100,0.00,,,0.12,0.000000,,2013-06-04 09:43:00,
2013-06-04 05:53:00,53.0,53.0,-100.00,WNW,299,1.0,4.0,100,0.00,,,0.12,0.000000,,2013-06-04 09:53:00,
2013-06-04 06:03:00,53.0,53.0,-100.00,WNW,299,1.0,4.0,100,0.00,,,0.12,0.000000,,2013-06-04 10:03:00,
2013-06-04 06:12:00,53.0,53.0,-100.00,WNW,299,1.0,4.0,100,0.00,,,0.12,0.000000,,2013-06-04 10:12:00,
2013-06-04 06:33:00,53.0,53.0,-100.00,NNW,335,1.0,5.0,100,0.00,,,0.12,2.000000,,2013-06-04 10:33:00,
2013-06-04 06:42:00,53.0,53.0,-100.00,NNW,335,1.0,5.0,100,0.00,,,0.12,2.000000,,2013-06-04 10:42:00,
2013-06-04 06:53:00,53.0,53.0,-100.00,NNW,335,1.0,5.0,100,0.00,,,0.12,2.000000,,2013-06-04 10:53:00,
2013-06-04 07:02:00,53.0,53.0,-100.00,NNW,335,1.0,5.0,100,0.00,,,0.12,2.000000,,2013-06-04 11:02:00,
2013-06-04 07:12:00,53.0,53.0,-100.00,NNW,335,1.0,5.0,100,0.00,,,0.12,2.000000,,2013-06-04 11:12:00,
2013-06-04 07:32:00,52.0,52.0,-100.00,WSW,239,0.0,2.0,100,0.00,,,0.12,22.000000,,2013-06-04 11:32:00,
2013-06-04 07:43:00,52.0,52.0,-100.00,WSW,239,0.0,2.0,100,0.00,,,0.12,22.000000,,2013-06-04 11:43:00,
2013-06-04 07:52:00,52.0,52.0,-100.00,WSW,239,0.0,2.0,100,0.00,,,0.12,22.000000,,2013-06-04 11:52:00,
2013-06-04 08:02:00,52.0,52.0,-100.00,WSW,239,0.0,2.0,100,0.00,,,0.12,22.000000,,2013-06-04 12:02:00,
2013-06-04 08:12:00,52.0,52.0,-100.00,WSW,239,0.0,2.0,100,0.00,,,0.12,22.000000,,2013-06-04 12:12:00,
2013-06-04 08:42:00,55.0,55.0,-100.00,North,0,0.0,5.0,100,0.01,,,0.13,108.000000,,2013-06-04 12:42:00,
2013-06-04 08:53:00,55.0,55.0,-100.00,North,0,0.0,5.0,100,0.01,,,0.13,108.000000,,2013-06-04 12:53:00,
2013-06-04 09:03:00,55.0,55.0,-100.00,North,0,0.0,5.0,100,0.01,,,0.13,108.000000,,2013-06-04 13:03:00,
2013-06-04 09:12:00,55.0,55.0,-100.00,North,0,0.0,5.0,100,0.01,,,0.13,108.000000,,2013-06-04 13:12:00,
2013-06-04 09:32:00,60.0,60.0,-100.00,WNW,297,2.0,4.0,99,0.00,,,0.13,368.000000,,2013-06-04 13:32:00,
2013-06-04 09:42:00,60.0,60.0,-100.00,WNW,297,2.0,4.0,99,0.00,,,0.13,368.000000,,2013-06-04 13:42:00,
2013-06-04 09:52:00,60.0,60.0,-100.00,WNW,297,2.0,4.0,99,0.00,,,0.13,368.000000,,2013-06-04 13:52:00,
2013-06-04 10:02:00,60.0,60.0,-100.00,WNW,297,2.0,4.0,99,0.00,,,0.13,368.000000,,2013-06-04 14:02:00,
2013-06-04 10:12:00,60.0,60.0,-100.00,WNW,297,2.0,4.0,99,0.00,,,0.13,368.000000,,2013-06-04 14:12:00,
2013-06-04 10:32:00,66.0,59.0,-100.00,ESE,111,3.0,6.0,77,0.00,,,0.13,529.000000,,2013-06-04 14:32:00,
2013-06-04 10:43:00,66.0,59.0,-100.00,ESE,111,3.0,6.0,77,0.00,,,0.13,529.000000,,2013-06-04 14:43:00,
2013-06-04 10:52:00,66.0,59.0,-100.00,ESE,111,3.0,6.0,77,0.00,,,0.13,529.000000,,2013-06-04 14:52:00,
2013-06-04 11:02:00,66.0,59.0,-100.00,ESE,111,3.0,6.0,77,0.00,,,0.13,529.000000,,2013-06-04 15:02:00,
2013-06-04 11:12:00,66.0,59.0,-100.00,ESE,111,3.0,6.0,77,0.00,,,0.13,529.000000,,2013-06-04 15:12:00,
2013-06-04 11:33:00,69.0,57.0,-100.00,SSW,210,3.0,7.0,65,0.00,,,0.13,663.000000,,2013-06-04 15:33:00,
2013-06-04 11:42:00,69.0,57.0,-100.00,SSW,210,3.0,7.0,65,0.00,,,0.13,663.000000,,2013-06-04 15:42:00,
2013-06-04 11:53:00,69.0,57.0,-100.00,SSW,210,3.0,7.0,65,0.00,,,0.13,663.000000,,2013-06-04 15:53:00,
2013-06-04 12:03:00,69.0,57.0,-100.00,SSW,210,3.0,7.0,65,0.00,,,0.13,663.000000,,2013-06-04 16:03:00,
2013-06-04 12:13:00,69.0,57.0,-100.00,SSW,210,3.0,7.0,65,0.00,,,0.13,663.000000,,2013-06-04 16:13:00,
2013-06-04 12:33:00,68.0,57.0,-100.00,SE,126,2.0,6.0,67,0.00,,,0.01,573.000000,,2013-06-04 16:33:00,
2013-06-04 12:42:00,68.0,57.0,-100.00,SE,126,2.0,6.0,67,0.00,,,0.01,573.000000,,2013-06-04 16:42:00,
2013-06-04 12:53:00,68.0,57.0,-100.00,SE,126,2.0,6.0,67,0.00,,,0.01,573.000000,,2013-06-04 16:53:00,
2013-06-04 13:03:00,68.0,57.0,-100.00,SE,126,2.0,6.0,67,0.00,,,0.01,573.000000,,2013-06-04 17:03:00,
2013-06-04 13:12:00,68.0,57.0,-100.00,SE,126,2.0,6.0,67,0.00,,,0.01,573.000000,,2013-06-04 17:12:00,
2013-06-04 13:33:00,71.0,58.0,-100.00,SE,128,2.0,6.0,63,0.00,,,0.01,606.000000,,2013-06-04 17:33:00,
2013-06-04 13:42:00,71.0,58.0,-100.00,SE,128,2.0,6.0,63,0.00,,,0.01,606.000000,,2013-06-04 17:42:00,
2013-06-04 13:52:00,71.0,58.0,-100.00,SE,128,2.0,6.0,63,0.00,,,0.01,606.000000,,2013-06-04 17:52:00,
2013-06-04 14:02:00,71.0,58.0,-100.00,SE,128,2.0,6.0,63,0.00,,,0.01,606.000000,,2013-06-04 18:02:00,
2013-06-04 14:12:00,71.0,58.0,-100.00,SE,128,2.0,6.0,63,0.00,,,0.01,606.000000,,2013-06-04 18:12:00,
2013-06-04 14:32:00,74.0,58.0,-100.00,WNW,291,4.0,8.0,57,0.00,,,0.01,872.000000,,2013-06-04 18:32:00,
2013-06-04 14:42:00,74.0,58.0,-100.00,WNW,291,4.0,8.0,57,0.00,,,0.01,872.000000,,2013-06-04 18:42:00,
2013-06-04 14:53:00,74.0,58.0,-100.00,WNW,291,4.0,8.0,57,0.00,,,0.01,872.000000,,2013-06-04 18:53:00,
2013-06-04 15:02:00,74.0,58.0,-100.00,WNW,291,4.0,8.0,57,0.00,,,0.01,872.000000,,2013-06-04 19:02:00,
2013-06-04 15:12:00,74.0,58.0,-100.00,WNW,291,4.0,8.0,57,0.00,,,0.01,872.000000,,2013-06-04 19:12:00,
2013-06-04 15:33:00,74.0,56.0,-100.00,NW,308,3.0,6.0,53,0.00,,,0.01,703.000000,,2013-06-04 19:33:00,
2013-06-04 15:42:00,74.0,56.0,-100.00,NW,308,3.0,6.0,53,0.00,,,0.01,703.000000,,2013-06-04 19:42:00,
2013-06-04 15:52:00,74.0,56.0,-100.00,NW,308,3.0,6.0,53,0.00,,,0.01,703.000000,,2013-06-04 19:52:00,
2013-06-04 16:03:00,74.0,56.0,-100.00,NW,308,3.0,6.0,53,0.00,,,0.01,703.000000,,2013-06-04 20:03:00,
2013-06-04 16:13:00,74.0,56.0,-100.00,NW,308,3.0,6.0,53,0.00,,,0.01,703.000000,,2013-06-04 20:13:00,
2013-06-04 16:32:00,76.0,62.0,-100.00,NE,52,2.0,7.0,61,0.00,,,0.01,562.000000,,2013-06-04 20:32:00,
2013-06-04 16:42:00,76.0,62.0,-100.00,NE,52,2.0,7.0,61,0.00,,,0.01,562.000000,,2013-06-04 20:42:00,
2013-06-04 16:53:00,76.0,62.0,-100.00,NE,52,2.0,7.0,61,0.00,,,0.01,562.000000,,2013-06-04 20:53:00,
2013-06-04 17:02:00,76.0,62.0,-100.00,NE,52,2.0,7.0,61,0.00,,,0.01,562.000000,,2013-06-04 21:02:00,
2013-06-04 17:12:00,76.0,62.0,-100.00,NE,52,2.0,7.0,61,0.00,,,0.01,562.000000,,2013-06-04 21:12:00,
2013-06-04 17:33:00,77.0,56.0,-100.00,ENE,72,2.0,5.0,48,0.00,,,0.01,553.000000,,2013-06-04 21:33:00,
2013-06-04 17:42:00,77.0,56.0,-100.00,ENE,72,2.0,5.0,48,0.00,,,0.01,553.000000,,2013-06-04 21:42:00,
2013-06-04 17:53:00,77.0,56.0,-100.00,ENE,72,2.0,5.0,48,0.00,,,0.01,553.000000,,2013-06-04 21:53:00,
2013-06-04 18:02:00,77.0,56.0,-100.00,ENE,72,2.0,5.0,48,0.00,,,0.01,553.000000,,2013-06-04 22:02:00,
2013-06-04 18:13:00,77.0,56.0,-100.00,ENE,72,2.0,5.0,48,0.00,,,0.01,553.000000,,2013-06-04 22:13:00,
2013-06-04 18:33:00,74.0,55.0,-100.00,NNE,26,2.0,5.0,51,0.00,,,0.01,433.000000,,2013-06-04 22:33:00,
2013-06-04 18:42:00,74.0,55.0,-100.00,NNE,26,2.0,5.0,51,0.00,,,0.01,433.000000,,2013-06-04 22:42:00,
2013-06-04 18:52:00,74.0,55.0,-100.00,NNE,26,2.0,5.0,51,0.00,,,0.01,433.000000,,2013-06-04 22:52:00,
2013-06-04 19:02:00,74.0,55.0,-100.00,NNE,26,2.0,5.0,51,0.00,,,0.01,433.000000,,2013-06-04 23:02:00,
2013-06-04 19:12:00,74.0,55.0,-100.00,NNE,26,2.0,5.0,51,0.00,,,0.01,433.000000,,2013-06-04 23:12:00,
2013-06-04 19:32:00,75.0,55.0,-100.00,ENE,78,1.0,4.0,50,0.00,,,0.01,207.000000,,2013-06-04 23:32:00,
2013-06-04 19:42:00,75.0,55.0,-100.00,ENE,78,1.0,4.0,50,0.00,,,0.01,207.000000,,2013-06-04 23:42:00,
2013-06-04 19:52:00,75.0,55.0,-100.00,ENE,78,1.0,4.0,50,0.00,,,0.01,207.000000,,2013-06-04 23:52:00,
2013-06-04 20:02:00,75.0,55.0,-100.00,ENE,78,1.0,4.0,50,0.00,,,0.01,207.000000,,2013-06-05 00:02:00,
2013-06-04 20:12:00,75.0,55.0,-100.00,ENE,78,1.0,4.0,50,0.00,,,0.01,207.000000,,2013-06-05 00:12:00,
2013-06-04 20:42:00,67.0,53.0,-100.00,NE,34,0.0,2.0,61,0.00,,,0.01,62.000000,,2013-06-05 00:42:00,
2013-06-04 20:52:00,67.0,53.0,-100.00,NE,34,0.0,2.0,61,0.00,,,0.01,62.000000,,2013-06-05 00:52:00,
2013-06-04 21:02:00,67.0,53.0,-100.00,NE,34,0.0,2.0,61,0.00,,,0.01,62.000000,,2013-06-05 01:02:00,
2013-06-04 21:12:00,67.0,53.0,-100.00,NE,34,0.0,2.0,61,0.00,,,0.01,62.000000,,2013-06-05 01:12:00,
2013-06-04 21:32:00,65.0,54.0,-100.00,NNE,14,3.0,4.0,68,0.00,,,0.01,3.000000,,2013-06-05 01:32:00,
2013-06-04 21:42:00,65.0,54.0,-100.00,NNE,14,3.0,4.0,68,0.00,,,0.01,3.000000,,2013-06-05 01:42:00,
2013-06-04 21:52:00,65.0,54.0,-100.00,NNE,14,3.0,4.0,68,0.00,,,0.01,3.000000,,2013-06-05 01:52:00,
2013-06-04 22:02:00,65.0,54.0,-100.00,NNE,14,3.0,4.0,68,0.00,,,0.01,3.000000,,2013-06-05 02:02:00,
2013-06-04 22:12:00,65.0,54.0,-100.00,NNE,14,3.0,4.0,68,0.00,,,0.01,3.000000,,2013-06-05 02:12:00,
2013-06-04 22:32:00,63.0,54.0,-100.00,NE,38,2.0,5.0,73,0.00,,,0.01,0.000000,,2013-06-05 02:32:00,
2013-06-04 22:42:00,63.0,54.0,-100.00,NE,38,2.0,5.0,73,0.00,,,0.01,0.000000,,2013-06-05 02:42:00,
2013-06-04 22:52:00,63.0,54.0,-100.00,NE,38,2.0,5.0,73,0.00,,,0.01,0.000000,,2013-06-05 02:52:00,
2013-06-04 23:02:00,63.0,54.0,-100.00,NE,38,2.0,5.0,73,0.00,,,0.01,0.000000,,2013-06-05 03:02:00,
2013-06-04 23:12:00,63.0,54.0,-100.00,NE,38,2.0,5.0,73,0.00,,,0.01,0.000000,,2013-06-05 03:12:00,
2013-06-04 23:33:00,60.0,52.0,-100.00,ENE,69,1.0,3.0,76,0.00,,,0.01,0.000000,,2013-06-05 03:33:00,
2013-06-04 23:43:00,60.0,52.0,-100.00,ENE,69,1.0,3.0,76,0.00,,,0.01,0.000000,,2013-06-05 03:43:00,
2013-06-04 23:53:00,60.0,52.0,-100.00,ENE,69,1.0,3.0,76,0.00,,,0.01,0.000000,,2013-06-05 03:53:00,